Date String (YYYY-MM-DD hh:mm:ss) UTC,Instrument flags,Ambient pressure (hPa),Sample flow (lpm),Bypass flow (lpm),Sample temperature (°C),Ambient temperature (°C),ASC tube jacket temperature (°C),LED temperature (°C),Box temperature (°C),Sample RH (%),Span deviation,Mass concentration (μg/m³),Mass concentration (μg/m³),Mass concentration (μg/m³)
DateTimeUTC,F1_M11,P_M11,Q1_M11,Q2_M11,T1_M11,T2_M11,T3_M11,T4_M11,T5_M11,U1_M11,ZSPAN_M11,X0_M11,X2_M11,X1_M11
2021-11-14 05:00:00,,0830.7,4.99,0.00,27.4,26.5,00.0,36.6,29.1,13.5,0000.0,0056.32,0006.31,0001.23
2021-11-14 05:01:00,,0830.8,5.01,0.00,27.3,26.4,00.0,36.6,29.0,13.5,0000.0,0052.96,0006.06,0001.20
2021-11-14 05:02:00,,0830.9,4.99,0.00,27.3,26.4,00.0,36.5,29.0,13.5,0000.0,0048.59,0005.82,0001.18
2021-11-14 05:03:00,,0830.9,5.00,0.00,27.3,26.4,00.0,36.5,29.0,13.6,0000.0,0045.97,0005.59,0001.15
2021-11-14 05:04:00,,0831.0,5.01,0.00,27.3,26.4,00.0,36.5,29.0,13.6,0000.0,0041.44,0005.31,0001.12
2021-11-14 05:05:00,,0831.0,5.00,0.00,27.3,26.3,00.0,36.5,28.9,13.6,0000.0,0038.77,0004.97,0001.11
2021-11-14 05:06:00,,0831.1,4.99,0.00,27.2,26.3,00.0,36.5,28.9,13.6,0000.0,0036.76,0004.69,0001.07
2021-11-14 05:07:00,,0831.2,5.00,0.00,27.2,26.3,00.0,36.4,28.9,13.6,0000.0,0034.27,0004.54,0001.05
2021-11-14 05:08:00,,0831.3,4.99,0.00,27.2,26.3,00.0,36.4,28.9,13.7,0000.0,0031.55,0004.48,0001.04
2021-11-14 05:09:00,,0831.2,5.01,0.00,27.2,26.3,00.0,36.4,28.9,13.7,0000.0,0029.78,0004.42,0001.04
2021-11-14 05:10:00,,0831.2,5.00,0.00,27.2,26.3,00.0,36.4,28.9,13.7,0000.0,0027.34,0004.35,0001.03
2021-11-14 05:11:00,,0831.2,4.99,0.00,27.1,26.3,00.0,36.4,28.9,13.7,0000.0,0026.36,0004.30,0001.03
2021-11-14 05:12:00,,0831.3,5.00,0.00,27.1,26.3,00.0,36.3,28.9,13.7,0000.0,0025.83,0004.27,0001.02
2021-11-14 05:13:00,,0831.4,5.01,0.00,27.1,26.3,00.0,36.3,28.9,13.7,0000.0,0025.57,0004.26,0001.02
2021-11-14 05:14:00,,0831.4,4.99,0.00,27.1,26.3,00.0,36.3,28.9,13.7,0000.0,0024.30,0004.27,0001.01
2021-11-14 05:15:00,,0831.5,5.01,0.00,27.1,26.3,00.0,36.3,28.9,13.7,0000.0,0023.55,0004.26,0001.02
2021-11-14 05:16:00,,0831.6,5.00,0.00,27.1,26.3,00.0,36.3,28.9,13.7,0000.0,0022.54,0004.29,0001.02
2021-11-14 05:17:00,,0831.5,5.00,0.00,27.1,26.3,00.0,36.3,28.9,13.7,0000.0,0021.64,0004.29,0001.01
2021-11-14 05:18:00,,0831.5,5.00,0.00,27.1,26.3,00.0,36.3,28.9,13.7,0000.0,0021.66,0004.27,0001.00
2021-11-14 05:19:00,,0831.6,5.00,0.00,27.2,26.3,00.0,36.3,29.0,13.7,0000.0,0020.19,0004.17,0000.99
2021-11-14 05:20:00,,0831.7,4.99,0.00,27.2,26.4,00.0,36.3,29.0,13.7,0000.0,0019.65,0004.17,0000.99
2021-11-14 05:21:00,,0831.8,4.99,0.00,27.2,26.4,00.0,36.2,29.0,13.7,0000.0,0019.30,0004.16,0000.99
2021-11-14 05:22:00,,0831.9,5.01,0.00,27.2,26.4,00.0,36.2,29.0,13.7,0000.0,0019.68,0004.15,0000.99
2021-11-14 05:23:00,,0832.0,5.00,0.00,27.2,26.4,00.0,36.2,29.1,13.7,0000.0,0020.35,0004.10,0000.98
2021-11-14 05:24:00,,0832.0,5.00,0.00,27.2,26.5,00.0,36.2,29.1,13.6,0000.0,0020.95,0004.10,0000.99
2021-11-14 05:25:00,,0832.0,5.01,0.00,27.3,26.5,00.0,36.2,29.1,13.6,0000.0,0020.88,0004.07,0000.99
2021-11-14 05:26:00,,0832.0,5.00,0.00,27.3,26.5,00.0,36.3,29.1,13.5,0000.0,0020.89,0004.11,0000.99
2021-11-14 05:27:00,,0832.0,5.00,0.00,27.3,26.5,00.0,36.3,29.1,13.5,0000.0,0020.30,0004.18,0000.99
2021-11-14 05:28:00,,0831.9,5.00,0.00,27.3,26.5,00.0,36.3,29.0,13.5,0000.0,0021.97,0004.20,0000.99
2021-11-14 05:29:00,,0831.8,4.99,0.00,27.2,26.5,00.0,36.3,29.0,13.6,0000.0,0024.79,0004.13,0000.99
2021-11-14 05:30:00,,0831.7,5.00,0.00,27.2,26.5,00.0,36.3,29.0,13.6,0000.0,0025.64,0004.14,0000.99
2021-11-14 05:31:00,,0831.7,5.01,0.00,27.2,26.4,00.0,36.3,29.0,13.6,0000.0,0025.95,0004.07,0001.00
2021-11-14 05:32:00,,0831.7,4.99,0.00,27.2,26.4,00.0,36.2,28.9,13.6,0000.0,0026.75,0004.04,0001.00
2021-11-14 05:33:00,,0831.9,5.00,0.00,27.2,26.4,00.0,36.2,28.9,13.6,0000.0,0025.74,0003.93,0000.98
2021-11-14 05:34:00,,0832.1,4.99,0.00,27.1,26.3,00.0,36.2,28.9,13.6,0000.0,0024.93,0003.86,0000.98
2021-11-14 05:35:00,,0832.1,5.00,0.00,27.1,26.3,00.0,36.2,28.9,13.5,0000.0,0024.85,0003.84,0000.98
2021-11-14 05:36:00,,0832.1,5.02,0.00,27.1,26.3,00.0,36.2,28.8,13.6,0000.0,0026.35,0003.86,0000.98
2021-11-14 05:37:00,,0832.1,4.98,0.00,27.1,26.2,00.0,36.2,28.8,13.6,0000.0,0027.01,0003.83,0000.97
2021-11-14 05:38:00,,0831.9,5.00,0.00,27.1,26.2,00.0,36.2,28.8,13.6,0000.0,0026.72,0003.70,0000.96
2021-11-14 05:39:00,,0832.0,5.00,0.00,27.0,26.2,00.0,36.2,28.7,13.7,0000.0,0025.66,0003.68,0000.97
2021-11-14 05:40:00,,0832.1,4.99,0.00,27.0,26.2,00.0,36.1,28.7,13.7,0000.0,0023.43,0003.71,0000.99
2021-11-14 05:41:00,,0832.1,5.01,0.00,27.0,26.2,00.0,36.1,28.7,13.6,0000.0,0023.59,0003.71,0000.99
2021-11-14 05:42:00,,0832.1,5.00,0.00,27.0,26.2,00.0,36.1,28.7,13.6,0000.0,0023.73,0003.78,0000.99
2021-11-14 05:43:00,,0832.1,5.00,0.00,27.0,26.2,00.0,36.1,28.7,13.6,0000.0,0022.51,0003.82,0000.99
2021-11-14 05:44:00,,0832.2,5.01,0.00,27.0,26.2,00.0,36.1,28.8,13.6,0000.0,0022.05,0003.84,0001.00
2021-11-14 05:45:00,,0832.2,4.99,0.00,27.0,26.2,00.0,36.1,28.8,13.6,0000.0,0021.13,0003.84,0001.01
2021-11-14 05:46:00,,0832.2,5.00,0.00,27.0,26.2,00.0,36.1,28.8,13.6,0000.0,0021.44,0003.83,0001.02
2021-11-14 05:47:00,,0832.2,4.99,0.00,27.0,26.2,00.0,36.1,28.7,13.6,0000.0,0020.43,0003.80,0001.03
2021-11-14 05:48:00,,0832.2,5.00,0.00,27.0,26.2,00.0,36.1,28.7,13.6,0000.0,0019.92,0003.75,0001.02
2021-11-14 05:49:00,,0832.3,5.01,0.00,27.0,26.2,00.0,36.1,28.7,13.6,0000.0,0020.06,0003.75,0001.02
2021-11-14 05:50:00,,0832.4,4.98,0.00,27.0,26.2,00.0,36.1,28.7,13.6,0000.0,0019.90,0003.68,0001.02
2021-11-14 05:51:00,,0832.3,5.01,0.00,27.0,26.2,00.0,36.0,28.7,13.7,0000.0,0019.68,0003.65,0001.01
2021-11-14 05:52:00,,0832.4,5.01,0.00,26.9,26.1,00.0,36.0,28.7,13.7,0000.0,0018.08,0003.63,0001.03
2021-11-14 05:53:00,,0832.5,4.99,0.00,26.9,26.1,00.0,36.0,28.6,13.7,0000.0,0016.61,0003.57,0001.03
2021-11-14 05:54:00,,0832.6,4.99,0.00,26.9,26.0,00.0,36.0,28.5,13.7,0000.0,0016.41,0003.55,0001.03
2021-11-14 05:55:00,,0832.6,5.01,0.00,26.8,25.9,00.0,36.0,28.4,13.8,0000.0,0015.69,0003.54,0001.04
2021-11-14 05:56:00,,0832.6,5.00,0.00,26.8,25.8,00.0,36.0,28.4,13.8,0000.0,0016.34,0003.57,0001.03
2021-11-14 05:57:00,,0832.6,5.01,0.00,26.7,25.7,00.0,35.9,28.4,13.9,0000.0,0016.77,0003.57,0001.01
2021-11-14 05:58:00,,0832.6,4.99,0.00,26.7,25.7,00.0,35.9,28.3,13.9,0000.0,0016.64,0003.55,0001.00
2021-11-14 05:59:00,,0832.6,5.01,0.00,26.7,25.7,00.0,35.9,28.3,14.0,0000.0,0015.95,0003.51,0000.98
